Location: Tel Aviv
(32.0670°N, 34.7670°E)
Time: 07:22:12
(UTC+02:00)

Tiros 1 - All Passes

Search period start: 29 November 2023 00:00
Search period end: 09 December 2023 00:00
Orbit: 626 x 659 km, 48.4° (Epoch: 28 November)

Date Brightness Start Highest point End Pass type
(mag) Time Alt. Az. Time Alt. Az. Time Alt. Az.
29 Nov - 04:11:22 10° S 04:15:08 24° SE 04:18:56 10° ENE visible
29 Nov - 05:52:19 10° WSW 05:56:59 52° NW 06:01:40 10° NE visible
29 Nov - 07:37:03 10° NW 07:39:57 16° NNW 07:42:49 10° NNE daylight
29 Nov - 09:22:35 10° N 09:23:44 11° N 09:24:53 10° NNE daylight
29 Nov - 11:03:47 10° NNW 11:07:21 21° NNE 11:10:54 10° ENE daylight
29 Nov - 12:45:13 10° NW 12:49:57 89° SW 12:54:37 10° SE daylight
29 Nov - 14:29:51 10° WSW 14:31:28 12° SW 14:33:04 10° SSW daylight
30 Nov - 04:34:48 10° SW 04:39:28 59° SE 04:44:11 10° ENE visible
30 Nov - 06:17:45 10° W 06:21:50 27° NNW 06:25:53 10° NNE daylight
30 Nov - 08:03:35 10° NNW 08:05:15 12° N 08:06:55 10° NNE daylight
30 Nov - 09:46:53 10° NNW 09:49:07 13° NNE 09:51:21 10° NE daylight
30 Nov - 11:27:56 10° NW 11:32:19 36° NNE 11:36:39 10° E daylight
30 Nov - 13:10:05 10° WNW 13:14:23 36° SW 13:18:37 10° SSE daylight
01 Dec - 03:18:48 10° S 03:22:16 20° SE 03:25:45 10° E visible
01 Dec - 04:59:19 10° WSW 05:04:02 60° NW 05:08:46 10° NE visible
01 Dec - 06:43:49 10° WNW 06:46:54 17° NNW 06:49:59 10° NNE daylight
01 Dec - 08:29:34 10° NNW 08:30:40 11° N 08:31:46 10° NNE daylight
01 Dec - 10:10:56 10° NNW 10:14:21 19° NNE 10:17:44 10° ENE daylight
01 Dec - 11:52:17 10° NW 11:57:02 80° NE 12:01:42 10° SE daylight
01 Dec - 13:36:12 10° W 13:38:37 14° SW 13:41:01 10° SSW daylight
02 Dec - 03:41:58 10° SSW 03:46:34 50° SE 03:51:11 10° ENE visible
02 Dec - 05:24:37 10° W 05:28:49 30° NNW 05:33:01 10° NNE visible
02 Dec - 07:10:18 10° NNW 07:12:11 12° N 07:14:03 10° NNE daylight
02 Dec - 08:54:00 10° NNW 08:56:03 13° NNE 08:58:07 10° NE daylight
02 Dec - 10:35:02 10° NW 10:39:21 33° NNE 10:43:35 10° E daylight
02 Dec - 12:17:02 10° WNW 12:21:29 42° SW 12:25:53 10° SSE daylight
03 Dec - 02:26:18 10° S 02:29:23 17° SE 02:32:28 10° E visible
03 Dec - 04:06:20 10° WSW 04:11:05 69° NW 04:15:50 10° NE visible
03 Dec - 05:50:35 10° WNW 05:53:51 18° NNW 05:57:07 10° NNE visible
03 Dec - 07:36:29 10° NNW 07:37:35 11° N 07:38:41 10° NNE daylight
03 Dec - 09:18:03 10° NNW 09:21:18 18° NNE 09:24:32 10° ENE daylight
03 Dec - 10:59:21 10° NW 11:04:05 69° NE 11:08:45 10° ESE daylight
03 Dec - 12:42:47 10° W 12:45:45 17° SW 12:48:41 10° SSW daylight
04 Dec - 02:49:09 10° SSW 02:53:38 43° SE 02:58:10 10° ENE visible
04 Dec - 04:31:30 10° W 04:35:48 33° NNW 04:40:09 10° NNE visible
04 Dec - 06:17:01 10° NW 06:19:05 13° NNW 06:21:11 10° NNE daylight
04 Dec - 08:01:06 10° NNW 08:02:58 12° N 08:04:50 10° NNE daylight
04 Dec - 09:42:08 10° NNW 09:46:20 30° NNE 09:50:28 10° E daylight
04 Dec - 11:24:00 10° WNW 11:28:35 49° SW 11:33:05 10° SSE daylight
05 Dec - 01:33:55 10° SSE 01:36:29 15° SE 01:39:05 10° E night (unlit)
05 Dec - 03:13:20 10° SW 03:18:06 79° NW 03:22:54 10° NE visible
05 Dec - 04:57:21 10° WNW 05:00:48 19° NNW 05:04:15 10° NNE visible
05 Dec - 06:43:19 10° NNW 06:44:29 11° N 06:45:38 10° NNE daylight
05 Dec - 08:25:10 10° NNW 08:28:14 17° NNE 08:31:18 10° ENE daylight
05 Dec - 10:06:24 10° NW 10:11:07 60° NE 10:15:45 10° ESE daylight
05 Dec - 11:49:28 10° W 11:52:52 20° SW 11:56:12 10° S daylight
06 Dec - 01:56:22 10° SSW 02:00:42 37° SE 02:05:05 10° ENE night (unlit)
06 Dec - 03:38:23 10° W 03:42:47 37° NNW 03:47:14 10° NE visible
06 Dec - 05:23:43 10° NW 05:26:00 13° NNW 05:28:18 10° NNE visible
06 Dec - 07:08:10 10° NNW 07:09:52 12° N 07:11:33 10° NNE daylight
06 Dec - 08:49:14 10° NNW 08:53:18 27° NNE 08:57:20 10° E daylight
06 Dec - 10:30:58 10° WNW 10:35:38 58° SW 10:40:15 10° SE daylight
07 Dec - 00:41:44 10° SSE 00:43:35 12° SE 00:45:27 10° ESE night (unlit)
07 Dec - 02:20:22 10° SW 02:25:07 90° ESE 02:29:55 10° NE night (unlit)
07 Dec - 04:04:07 10° WNW 04:07:44 21° NNW 04:11:21 10° NNE visible
07 Dec - 05:50:07 10° NNW 05:51:21 11° N 05:52:35 10° NNE visible
07 Dec - 07:32:16 10° NNW 07:35:10 16° NNE 07:38:02 10° NE daylight
07 Dec - 09:13:26 10° NW 09:18:07 53° NE 09:22:43 10° ESE daylight
07 Dec - 10:56:13 10° WNW 10:59:56 23° SW 11:03:37 10° S daylight
08 Dec - 01:03:36 10° SSW 01:07:46 31° SE 01:11:58 10° ENE night (unlit)
08 Dec - 02:45:16 10° WSW 02:49:46 41° NNW 02:54:18 10° NE night (unlit)
08 Dec - 04:30:24 10° NW 04:32:53 14° NNW 04:35:23 10° NNE visible
08 Dec - 06:15:13 10° NNW 06:16:45 11° N 06:18:16 10° NNE daylight
08 Dec - 07:56:19 10° NNW 08:00:15 25° NNE 08:04:09 10° E daylight
08 Dec - 09:37:56 10° NW 09:42:40 67° SW 09:47:21 10° SE daylight
